TimeEDT,TemperatureF,Dew PointF,Humidity,Sea Level PressureIn,VisibilityMPH,Wind Direction,Wind SpeedMPH,Gust SpeedMPH,PrecipitationIn,Events,Conditions,WindDirDegrees,DateUTC
12:55 AM,57.0,46.9,69,30.06,10.0,Calm,Calm,-,N/A,,Clear,0,2013-07-25 04:55:00
1:55 AM,55.0,46.9,74,30.06,10.0,Calm,Calm,-,N/A,,Clear,0,2013-07-25 05:55:00
2:55 AM,54.0,46.9,77,30.06,10.0,Calm,Calm,-,N/A,,Clear,0,2013-07-25 06:55:00
3:55 AM,53.1,46.9,80,30.05,10.0,Calm,Calm,-,N/A,,Clear,0,2013-07-25 07:55:00
4:55 AM,52.0,46.0,80,30.06,10.0,Calm,Calm,-,N/A,,Clear,0,2013-07-25 08:55:00
5:55 AM,53.1,46.9,80,30.08,10.0,Calm,Calm,-,N/A,,Partly Cloudy,0,2013-07-25 09:55:00
6:55 AM,52.0,46.9,83,30.09,10.0,Calm,Calm,-,N/A,,Partly Cloudy,0,2013-07-25 10:55:00
7:55 AM,57.0,50.0,77,30.10,10.0,Calm,Calm,-,N/A,,Partly Cloudy,0,2013-07-25 11:55:00
8:55 AM,64.0,52.0,65,30.10,10.0,South,3.5,-,N/A,,Clear,190,2013-07-25 12:55:00
9:55 AM,70.0,53.1,55,30.11,10.0,WSW,6.9,-,N/A,,Clear,250,2013-07-25 13:55:00
10:55 AM,72.0,52.0,49,30.10,10.0,Variable,5.8,-,N/A,,Partly Cloudy,0,2013-07-25 14:55:00
11:55 AM,73.0,53.1,49,30.12,10.0,West,9.2,-,N/A,,Partly Cloudy,270,2013-07-25 15:55:00
12:55 PM,73.9,51.1,45,30.12,10.0,SW,8.1,-,N/A,,Scattered Clouds,230,2013-07-25 16:55:00
1:55 PM,73.9,50.0,43,30.11,10.0,SSW,8.1,-,N/A,,Scattered Clouds,210,2013-07-25 17:55:00
2:55 PM,75.0,51.1,43,30.10,10.0,SW,9.2,-,N/A,,Scattered Clouds,220,2013-07-25 18:55:00
3:55 PM,73.9,53.1,48,30.10,10.0,SW,10.4,18.4,N/A,,Scattered Clouds,220,2013-07-25 19:55:00
4:55 PM,73.0,51.1,46,30.08,10.0,SW,9.2,-,N/A,,Scattered Clouds,230,2013-07-25 20:55:00
5:55 PM,73.0,51.1,46,30.07,10.0,SW,10.4,-,N/A,,Scattered Clouds,230,2013-07-25 21:55:00
6:55 PM,71.1,52.0,51,30.08,10.0,SW,11.5,-,N/A,,Mostly Cloudy,230,2013-07-25 22:55:00
7:55 PM,69.1,55.9,63,30.06,10.0,SSW,4.6,-,N/A,,Mostly Cloudy,210,2013-07-25 23:55:00
8:55 PM,68.0,55.9,65,30.05,10.0,South,5.8,-,N/A,,Overcast,190,2013-07-26 00:55:00
9:55 PM,66.0,55.9,70,30.05,10.0,South,4.6,-,N/A,,Mostly Cloudy,180,2013-07-26 01:55:00
10:55 PM,64.0,55.9,75,30.06,10.0,SSE,5.8,-,N/A,,Mostly Cloudy,150,2013-07-26 02:55:00
11:55 PM,64.0,55.0,73,30.05,10.0,South,5.8,-,N/A,,Clear,170,2013-07-26 03:55:00